Location: *
(49.4547°N, 7.9131°E)
Time: 05:41:08
(UTC+00:00)

Cosmos 1461 - Pass Details

Date: 22 September 2019
Orbit: 525 x 643 km, 65.0° (Epoch: 20 October)

Event Time Altitude Azimuth Distance (km) Brightness Sun altitude
Rises 18:32:21 0° 244° (WSW) 2,675 7.2 -11.3°
Reaches altitude 10° 18:34:42 10° 254° (WSW) 1,778 6.4 -11.7°
Maximum altitude 18:38:19 33° 319° (NW) 900 4.5 -12.3°
Drops below altitude 10° 18:41:57 10° 26° (NNE) 1,776 5.3 -12.8°
Sets 18:44:18 0° 36° (NE) 2,673 6.1 -13.2°
